Weather History for KLWT - May, 2012

Change the Weather History Date:

Wednesday, May 9, 2012

  Actual Average Record
Temperature  
Mean Temperature 61 °F 48 °F  
Max Temperature 79 °F 61 °F 84 °F (1906)
Min Temperature 42 °F 35 °F 16 °F (2002)
Degree Days  
Heating Degree Days 4 17  
Month to date heating degree days 167 164  
Since 1 July heating degree days 6893 7671  
Cooling Degree Days 0 0  
Month to date cooling degree days 0 0  
Year to date cooling degree days 0 0  
Growing Degree Days 10 (Base 50)    
Moisture  
Dew Point 33 °F    
Average Humidity 43    
Maximum Humidity 70    
Minimum Humidity 15    
Precipitation  
Precipitation 0.00 in 0.08 in 1.28 in (1921)
Month to date precipitation 0.19 0.64  
Year to date precipitation 5.50 4.05  
Snow  
Snow 0.00 in - - ()
Snow Depth 0.00 in    
Sea Level Pressure  
Sea Level Pressure 29.76 in    
Wind  
Wind Speed 8 mph (WNW)    
Max Wind Speed 26 mph    
Max Gust Speed 32 mph    
Visibility 10 miles    
Events      
T = Trace of Precipitation, MM = Missing Value Source: NWS Daily Summary

Daily Weather History Graph

Daily Weather History Graph

Search for Another Location

Airport or City:

Trip Planner

Search our weather history database for the weather conditions in past years. The results will help you decide how hot, cold, wet, or windy it might be!

Date:

Astronomy

May. 09, 2012 Rise Set
Actual Time 5:49 AM MDT 8:39 PM MDT
Civil Twilight 5:14 AM MDT 9:15 PM MDT
Nautical Twilight 4:29 AM MDT 10:00 PM MDT
Astronomical Twilight 3:36 AM MDT 10:54 PM MDT
Moon No Moon Rise 9:04 AM MDT (5/9)
Length of Visible Light 16h 01m
Length of Day
14h 50m
Waning Gibbous, 82% of the Moon is Illuminated
May 9
Waning Gibbous
May 12
Last Quarter
May 20
New
May 28
First Quarter
Jun 4
Full

Hourly Weather History & Observations

Time (MDT) Temp. Windchill Dew Point Humidity Pressure Visibility Wind Dir Wind Speed Gust Speed Precip Events Conditions
12:54 AM 45.0 °F 42.6 °F 36.0 °F 71% 29.88 in 10.0 mi ESE 4.6 mph - N/A   Clear
1:54 AM 44.1 °F 41.5 °F 36.0 °F 73% 29.87 in 10.0 mi South 4.6 mph - N/A   Clear
2:54 AM 44.1 °F 42.5 °F 35.1 °F 71% 29.87 in 10.0 mi South 3.5 mph - N/A   Clear
3:54 AM 42.1 °F - 34.0 °F 73% 29.87 in 10.0 mi Calm Calm - N/A   Clear
4:54 AM 46.0 °F 40.6 °F 33.1 °F 61% 29.86 in 10.0 mi WSW 11.5 mph - N/A   Clear
5:54 AM 51.1 °F - 30.9 °F 46% 29.85 in 10.0 mi Variable 3.5 mph - N/A   Clear
6:54 AM 51.1 °F - 30.9 °F 46% 29.85 in 10.0 mi Calm Calm - N/A   Clear
7:54 AM 54.0 °F - 37.9 °F 55% 29.86 in 10.0 mi Calm Calm - N/A   Clear
8:54 AM 57.9 °F - 33.1 °F 39% 29.86 in 10.0 mi East 4.6 mph - N/A   Clear
9:54 AM 66.9 °F - 37.0 °F 33% 29.83 in 10.0 mi Calm Calm - N/A   Clear
10:54 AM 71.1 °F - 33.1 °F 25% 29.80 in 10.0 mi SW 8.1 mph - N/A   Clear
11:54 AM 73.0 °F - 30.0 °F 20% 29.78 in 10.0 mi West 10.4 mph 16.1 mph N/A   Clear
12:54 PM 75.0 °F - 32.0 °F 21% 29.73 in 10.0 mi SSE 11.5 mph - N/A   Clear
1:54 PM 79.0 °F - 32.0 °F 18% 29.70 in 10.0 mi WSW 27.6 mph - N/A   Clear
2:54 PM 79.0 °F - 27.0 °F 15% 29.69 in 10.0 mi West 17.3 mph - N/A   Clear
3:54 PM 78.1 °F - 28.0 °F 16% 29.68 in 10.0 mi West 15.0 mph 23.0 mph N/A   Clear
4:54 PM 78.1 °F - 28.9 °F 17% 29.65 in 10.0 mi West 20.7 mph 26.5 mph N/A   Clear
5:54 PM 75.9 °F - 30.9 °F 19% 29.62 in 10.0 mi NW 6.9 mph - N/A   Clear
6:54 PM 70.0 °F - 44.1 °F 39% 29.63 in 10.0 mi North 10.4 mph - N/A   Clear
7:54 PM 64.9 °F - 39.9 °F 40% 29.66 in 10.0 mi North 10.4 mph - N/A   Scattered Clouds
8:54 PM 63.0 °F - 33.1 °F 33% 29.69 in 10.0 mi North 5.8 mph - N/A   Scattered Clouds
9:54 PM 62.1 °F - 33.1 °F 34% 29.71 in 10.0 mi North 8.1 mph - N/A   Overcast
10:54 PM 59.0 °F - 28.0 °F 31% 29.70 in 10.0 mi NNW 6.9 mph - N/A   Clear
11:54 PM 54.0 °F - 32.0 °F 43% 29.71 in 10.0 mi NNW 5.8 mph - N/A   Scattered Clouds